Location: Star Camp Observatory
(34.2910°N, 116.3827°W)
Time: 21:08:38
(UTC-08:00)

Hubble Space Telescope - Visible Passes

Search period start: 12 November 2019 00:00
Search period end: 22 November 2019 00:00
Orbit: 536 x 540 km, 28.5° (Epoch: 12 November)

Date Brightness Start Highest point End Pass type
(mag) Time Alt. Az. Time Alt. Az. Time Alt. Az.
15 Nov 3.4 18:44:46 10° S 18:45:03 11° S 18:45:03 11° S visible
16 Nov 3.0 18:33:29 10° SSW 18:35:11 15° S 18:35:11 15° S visible
17 Nov 2.6 18:22:24 10° SSW 18:25:16 19° SSE 18:25:16 19° SSE visible
18 Nov 2.4 18:11:27 10° SW 18:14:40 22° SSE 18:15:19 21° SSE visible
19 Nov 2.3 18:00:35 10° SW 18:03:59 25° SSE 18:05:21 21° SE visible
20 Nov 2.2 17:49:47 10° SW 17:53:20 28° SSE 17:55:23 19° SE visible
20 Nov 3.9 19:30:22 10° WSW 19:30:43 12° WSW 19:30:43 12° WSW visible
21 Nov 2.1 17:39:01 10° SW 17:42:41 31° S 17:45:24 15° ESE visible
21 Nov 3.5 19:19:44 10° WSW 19:20:44 16° WSW 19:20:44 16° WSW visible
